Albany, GA

7:00 PM EDT on March 25, 2017 (GMT -0400)
Southwest Georgia Regional

Weather History for KABY - December, 2013

Change the Weather History Date:

Monday, December 30, 2013

  Actual Average Record
Temperature  
Mean Temperature 47 °F 49 °F  
Max Temperature 58 °F 61 °F 80 °F (1984)
Min Temperature 36 °F 38 °F 18 °F (1961)
Degree Days  
Heating Degree Days 18 16  
Month to date heating degree days 313 427  
Since 1 July heating degree days 610 697  
Cooling Degree Days 0 0  
Month to date cooling degree days 35 0  
Year to date cooling degree days 2443 2533  
Moisture  
Dew Point 41 °F    
Average Humidity 79    
Maximum Humidity 100    
Minimum Humidity 57    
Precipitation  
Precipitation 0.00 in 0.07 in 0.55 in (2007)
Month to date precipitation 3.10 3.67  
Year to date precipitation 48.83 48.49  
Sea Level Pressure  
Sea Level Pressure 30.17 in    
Wind  
Wind Speed 1 mph (WNW)    
Max Wind Speed 9 mph    
Max Gust Speed 24 mph    
Visibility 6 miles    
Events Fog    
T = Trace of Precipitation, MM = Missing Value Source: NWS Daily Summary

Daily Weather History Graph

Daily Weather History Graph

Search for Another Location

Airport or City:

Trip Planner

Search our weather history database for the weather conditions in past years. The results will help you decide how hot, cold, wet, or windy it might be!

Date:

Astronomy

Dec. 30, 2013 Rise Set
Actual Time 7:35 AM EST 5:43 PM EST
Civil Twilight 7:08 AM EST 6:10 PM EST
Nautical Twilight 6:38 AM EST 6:40 PM EST
Astronomical Twilight 6:08 AM EST 7:10 PM EST
Moon 5:27 AM EST (12/30) 4:12 PM EST (12/30)
Length of Visible Light 11h 01m
Length of Day
10h 07m
Waning Crescent, 5% of the Moon is Illuminated
Dec 30
Waning Crescent
Jan 1
New
Jan 7
First Quarter
Jan 15
Full
Jan 24
Last Quarter

Hourly Weather History & Observations

Time (EST) Temp. Windchill Dew Point Humidity Pressure Visibility Wind Dir Wind Speed Gust Speed Precip Events Conditions
12:53 AM 42.1 °F 39.2 °F 41.0 °F 96% 30.10 in 8.0 mi NW 4.6 mph - N/A   Clear
1:53 AM 42.1 °F - 41.0 °F 96% 30.10 in 8.0 mi Calm Calm - N/A   Clear
2:53 AM 41.0 °F - 39.9 °F 96% 30.12 in 7.0 mi Calm Calm - N/A   Clear
3:16 AM 39.2 °F - 39.2 °F 100% 30.12 in 1.2 mi Calm Calm - N/A   Clear
3:24 AM 39.2 °F - 39.2 °F 100% 30.12 in 0.8 mi Calm Calm - N/A   Clear
3:28 AM 41.0 °F - 39.2 °F 93% 30.12 in 2.0 mi Calm Calm - N/A   Clear
3:38 AM 41.0 °F - 39.2 °F 93% 30.11 in 6.0 mi Calm Calm - N/A   Clear
3:53 AM 39.9 °F - 39.0 °F 97% 30.12 in 1.2 mi Calm Calm - N/A   Mostly Cloudy
4:01 AM 39.2 °F - 39.2 °F 100% 30.12 in 0.5 mi Calm Calm - N/A Fog Fog
4:22 AM 39.2 °F - 37.4 °F 93% 30.13 in 0.5 mi Calm Calm - N/A Fog Fog
4:34 AM 39.2 °F - 37.4 °F 93% 30.13 in 0.2 mi Calm Calm - N/A Fog Fog
4:53 AM 39.0 °F - 37.9 °F 96% 30.13 in 0.2 mi Calm Calm - N/A Fog Fog
5:05 AM 39.2 °F - 37.4 °F 93% 30.13 in 1.0 mi Calm Calm - N/A   Mist
5:12 AM 37.4 °F - 37.4 °F 100% 30.13 in 3.0 mi Calm Calm - N/A   Mostly Cloudy
5:25 AM 37.4 °F - 37.4 °F 100% 30.14 in 10.0 mi Calm Calm - N/A   Scattered Clouds
5:53 AM 36.0 °F - 36.0 °F 100% 30.15 in 6.0 mi Calm Calm - N/A   Scattered Clouds
5:59 AM 35.6 °F - 35.6 °F 100% 30.15 in 2.5 mi Calm Calm - N/A   Mostly Cloudy
6:12 AM 37.4 °F - 35.6 °F 93% 30.15 in 9.0 mi Calm Calm - N/A   Scattered Clouds
6:31 AM 35.6 °F 32.8 °F 35.6 °F 100% 30.15 in 1.5 mi NNW 3.5 mph - N/A   Scattered Clouds
6:33 AM 35.6 °F 32.8 °F 35.6 °F 100% 30.15 in 0.8 mi NW 3.5 mph - N/A   Mist
6:46 AM 37.4 °F - 37.4 °F 100% 30.15 in 1.8 mi Calm Calm - N/A   Scattered Clouds
6:48 AM 37.4 °F - 37.4 °F 100% 30.15 in 4.0 mi Calm Calm - N/A   Scattered Clouds
6:53 AM 37.0 °F - 37.0 °F 100% 30.15 in 5.0 mi Calm Calm - N/A   Scattered Clouds
7:40 AM 35.6 °F - 35.6 °F 100% 30.17 in 1.5 mi Calm Calm - N/A   Partly Cloudy
7:53 AM 37.0 °F - 36.0 °F 96% 30.18 in 3.0 mi Calm Calm - N/A   Clear
7:58 AM 37.4 °F - 35.6 °F 93% 30.17 in 7.0 mi Calm Calm - N/A   Clear
8:53 AM 42.1 °F - 42.1 °F 100% 30.19 in 10.0 mi Calm Calm - N/A   Clear
9:53 AM 46.9 °F - 45.0 °F 93% 30.22 in 10.0 mi Calm Calm - N/A   Clear
10:53 AM 48.9 °F - 45.0 °F 86% 30.23 in 10.0 mi Calm Calm - N/A   Clear
11:53 AM 52.0 °F - 45.0 °F 77% 30.22 in 10.0 mi Calm Calm - N/A   Clear
12:53 PM 54.0 °F - 45.0 °F 72% 30.20 in 10.0 mi Calm Calm - N/A   Clear
1:53 PM 57.0 °F - 43.0 °F 59% 30.19 in 10.0 mi Calm Calm - N/A   Clear
2:53 PM 57.0 °F - 43.0 °F 59% 30.19 in 10.0 mi Calm Calm - N/A   Clear
3:53 PM 57.0 °F - 44.1 °F 62% 30.18 in 10.0 mi Calm Calm - N/A   Clear
4:53 PM 55.9 °F - 45.0 °F 67% 30.19 in 10.0 mi Calm Calm - N/A   Clear
5:53 PM 53.1 °F - 48.9 °F 86% 30.19 in 10.0 mi South 4.6 mph - N/A   Clear
6:53 PM 52.0 °F - 48.0 °F 86% 30.21 in 10.0 mi Calm Calm - N/A   Partly Cloudy
7:53 PM 52.0 °F - 48.0 °F 86% 30.22 in 10.0 mi Calm Calm - N/A   Partly Cloudy
8:53 PM 51.1 °F - 48.0 °F 89% 30.23 in 10.0 mi Calm Calm - N/A   Clear
9:53 PM 51.1 °F - 48.0 °F 89% 30.25 in 10.0 mi WNW 3.5 mph - N/A   Clear
10:53 PM 51.1 °F - 46.9 °F 86% 30.26 in 10.0 mi WSW 3.5 mph - N/A   Clear
11:53 PM 51.1 °F - 46.9 °F 86% 30.25 in 10.0 mi Calm Calm - N/A   Clear